Davenport, IA

7:43 PM CDT on August 21, 2017 (GMT -0500)
Davenport Municipal

Weather History for KDVN - October, 2013

Change the Weather History Date:

Thursday, October 17, 2013

  Actual Average Record
Temperature  
Mean Temperature 50 °F 51 °F  
Max Temperature 61 °F 62 °F 88 °F (2016)
Min Temperature 39 °F 40 °F 24 °F (2004)
Degree Days  
Heating Degree Days 15 14  
Month to date heating degree days 121 195  
Since 1 July heating degree days 220 330  
Cooling Degree Days 0 0  
Month to date cooling degree days 27 11  
Year to date cooling degree days 938 785  
Growing Degree Days 2 (Base 50)    
Moisture  
Dew Point 39 °F    
Average Humidity 63    
Maximum Humidity 93    
Minimum Humidity 32    
Precipitation  
Precipitation T in 0.10 in 2.75 in (1998)
Month to date precipitation 0.41 1.65  
Year to date precipitation 30.42 30.53  
Snow  
Snow 0.00 in - - ()
Month to date snowfall 0.0  
Since 1 July snowfall 0.0  
Since 1 September snowfall 0.0  
Snow Depth 0.00 in    
Sea Level Pressure  
Sea Level Pressure 29.90 in    
Wind  
Wind Speed 7 mph (WSW)    
Max Wind Speed 21 mph    
Max Gust Speed 26 mph    
Visibility 10 miles    
Events Rain    
T = Trace of Precipitation, MM = Missing Value Source: NWS Daily Summary

Daily Weather History Graph

Daily Weather History Graph

Search for Another Location

Airport or City:

Trip Planner

Search our weather history database for the weather conditions in past years. The results will help you decide how hot, cold, wet, or windy it might be!

Date:

Astronomy

Oct. 17, 2013 Rise Set
Actual Time 7:16 AM CDT 6:17 PM CDT
Civil Twilight 6:48 AM CDT 6:45 PM CDT
Nautical Twilight 6:16 AM CDT 7:17 PM CDT
Astronomical Twilight 5:44 AM CDT 7:49 PM CDT
Moon 5:32 PM CDT (10/17) 5:48 AM CDT (10/17)
Length of Visible Light 11h 56m
Length of Day
11h 00m
Waxing Gibbous, 98% of the Moon is Illuminated
Oct 17
Waxing Gibbous
Oct 18
Full
Oct 26
Last Quarter
Nov 3
New
Nov 9
First Quarter

Hourly Weather History & Observations

Time (CDT) Temp. Windchill Dew Point Humidity Pressure Visibility Wind Dir Wind Speed Gust Speed Precip Events Conditions
12:16 AM 48.2 °F - 44.6 °F 87% 29.96 in 10.0 mi West 5.8 mph - N/A   Overcast
12:52 AM 48.0 °F - 43.0 °F 83% 29.96 in 10.0 mi WSW 5.8 mph - N/A   Overcast
1:52 AM 48.0 °F - 43.0 °F 83% 29.96 in 10.0 mi WSW 4.6 mph - N/A   Overcast
2:52 AM 46.9 °F - 43.0 °F 86% 29.95 in 10.0 mi WSW 4.6 mph - N/A   Overcast
3:25 AM 46.4 °F 44.3 °F 42.8 °F 87% 29.93 in 10.0 mi WSW 4.6 mph - N/A   Overcast
3:52 AM 46.9 °F - 43.0 °F 86% 29.94 in 10.0 mi WSW 5.8 mph - N/A   Overcast
4:52 AM 46.9 °F - 43.0 °F 86% 29.91 in 10.0 mi West 4.6 mph - N/A   Overcast
5:47 AM 46.4 °F 44.3 °F 42.8 °F 87% 29.91 in 10.0 mi WSW 4.6 mph - N/A   Overcast
5:52 AM 46.9 °F - 43.0 °F 86% 29.92 in 10.0 mi WSW 5.8 mph - N/A   Overcast
5:59 AM 46.4 °F 43.5 °F 42.8 °F 87% 29.91 in 10.0 mi WSW 5.8 mph - N/A   Overcast
6:52 AM 46.9 °F - 44.1 °F 90% 29.92 in 8.0 mi WSW 5.8 mph - 0.00 in Rain Light Rain
7:52 AM 46.9 °F - 44.1 °F 90% 29.92 in 8.0 mi WSW 4.6 mph - 0.00 in   Overcast
8:52 AM 46.9 °F - 44.1 °F 90% 29.93 in 10.0 mi WSW 6.9 mph - N/A   Scattered Clouds
9:52 AM 48.9 °F - 42.1 °F 77% 29.92 in 10.0 mi WSW 9.2 mph - N/A   Clear
10:52 AM 52.0 °F - 39.9 °F 63% 29.92 in 10.0 mi West 15.0 mph - N/A   Clear
11:52 AM 54.0 °F - 39.0 °F 57% 29.91 in 10.0 mi West 10.4 mph 19.6 mph N/A   Clear
12:52 PM 55.9 °F - 36.0 °F 47% 29.89 in 10.0 mi WSW 12.7 mph - N/A   Scattered Clouds
1:52 PM 59.0 °F - 34.0 °F 39% 29.87 in 10.0 mi West 10.4 mph - N/A   Scattered Clouds
2:52 PM 61.0 °F - 32.0 °F 34% 29.86 in 10.0 mi West 13.8 mph 23.0 mph N/A   Partly Cloudy
3:52 PM 61.0 °F - 30.9 °F 32% 29.86 in 10.0 mi West 15.0 mph 23.0 mph N/A   Partly Cloudy
4:52 PM 60.1 °F - 30.0 °F 32% 29.85 in 10.0 mi West 10.4 mph - N/A   Clear
5:52 PM 57.0 °F - 32.0 °F 39% 29.86 in 10.0 mi NW 3.5 mph - N/A   Clear
6:52 PM 46.0 °F - 34.0 °F 63% 29.86 in 10.0 mi Calm Calm - N/A   Clear
7:52 PM 44.1 °F 42.5 °F 34.0 °F 68% 29.87 in 10.0 mi SSE 3.5 mph - N/A   Clear
8:52 PM 43.0 °F 40.3 °F 34.0 °F 71% 29.87 in 10.0 mi SSE 4.6 mph - N/A   Clear
9:52 PM 44.1 °F 41.5 °F 36.0 °F 73% 29.88 in 10.0 mi South 4.6 mph - N/A   Overcast
10:52 PM 42.1 °F - 35.1 °F 76% 29.87 in 10.0 mi Calm Calm - N/A   Clear
11:52 PM 41.0 °F 39.0 °F 34.0 °F 76% 29.87 in 10.0 mi SSW 3.5 mph - N/A   Clear